Simultaneous Nadir Overpasses (SNOs) Predictions

Prediction of SNOs between AQUA and NPP Satellite Orbit:

Table of predicted SNOs for the next 14.0 days since TLE Epoch: 2/3/2024
Index Date (AQUA) Time (AQUA) Lat,Lon (AQUA) SZA (AQUA ) Date (NPP) Time (NPP) Lat,Lon (NPP) SZA (NPP ) Distance(km) Time Diff (sec)
1 02/05/2024 10:42:07 -79.02, 98.43 71.53 02/05/2024 10:40:54 -79.46, 96.26 71.17 65.73 73
2 02/05/2024 11:30:24 81.11, -73.85 104.98 02/05/2024 11:30:29 81.11, -73.81 104.97 0.82 5
3 02/08/2024 00:24:49 81.09, 92.22 104.26 02/08/2024 00:24:25 81.09, 92.31 104.27 1.62 24
4 02/08/2024 01:14:11 -81.12, -99.67 75.82 02/08/2024 01:15:08 -81.12, -99.51 75.88 2.78 57
5 02/10/2024 13:19:12 81.09,-101.32 103.46 02/10/2024 13:18:20 81.09,-101.25 103.48 1.24 52
6 02/10/2024 14:08:34 -81.12, 66.81 76.63 02/10/2024 14:09:03 -81.12, 66.94 76.66 2.19 29
7 02/13/2024 03:02:56 -81.12,-126.69 77.46 02/13/2024 03:02:58 -81.12,-126.66 77.47 0.70 2
8 02/15/2024 15:57:17 -81.10, 39.44 78.28 02/15/2024 15:56:53 -81.10, 39.31 78.24 2.44 24



Historial Predications of SNOs between AQUA and NPP
